Miscellaneous Local Product
Issued by NWS Hastings, NE

Home | Current Version | Previous Version | Text Only | Print | Product List | Glossary Off
Versions: 1 2 3 4 5 6 7 8 9 10 11 12 13 14 15 16 17 18 19 20 21 22 23 24 25 26 27 28 29 30 31 32 33 34 35 36 37 38 39 40 41 42 43 44 45 46 47 48 49 50

000
AXUS43 KGID 211102
MISGRI

GID CWA HOURLY WEATHER ROUNDUP
NATIONAL WEATHER SERVICE HASTINGS NE
600 AM CDT THU MAY 21 2015

NOTE: "FAIR" INDICATES FEW OR NO CLOUDS BELOW 12,000 FEET WITH NO
SIGNIFICANT WEATHER AND/OR OBSTRUCTIONS TO VISIBILITY.

...SOUTH CENTRAL NEBRASKA...

CITY           SKY/WX    TMP DP  RH WIND       PRES   REMARKS
GRAND ISLAND   CLEAR     37  34  89 W7        30.30F WCI  32
HASTINGS       CLEAR     37  35  92 W7        30.29F WCI  32
KEARNEY        CLEAR     37  34  87 W5        30.30F WCI  34
ORD            CLEAR     33  31  92 CALM      30.28S
YORK           CLEAR     37  37 100 W8        30.29S WCI  31
AURORA         CLEAR     37  37 100 NW7       30.29S WCI  31
LEXINGTON      CLEAR     34  33  96 NW6       30.31S FOG     WCI  29
HOLDREGE       CLEAR     37  35  92 W5        30.30F WCI  33
HEBRON         CLEAR     39  37  91 W3        30.30S

...NEBRASKA PANHANDLE...

CITY           SKY/WX    TMP DP  RH WIND       PRES   REMARKS
CHADRON        CLEAR     30  27  88 SE3       30.27F
ALLIANCE       CLEAR     31  29  92 CALM      30.26F
SCOTTSBLUFF    CLOUDY    41  36  82 E8        30.27F
SIDNEY         CLOUDY    41  37  86 S8        30.27F

...WESTERN AND NORTH CENTRAL NEBRASKA...

CITY           SKY/WX    TMP DP  RH WIND       PRES   REMARKS
VALENTINE      CLEAR     34  32  92 W8        30.28S WCI  27
AINSWORTH      CLEAR     37  34  92 W5        30.28S WCI  33
ONEILL         CLEAR     39  37  89 W7        30.26S WCI  34
BROKEN BOW     CLEAR     36  33  89 CALM      30.28F
IMPERIAL       CLOUDY    43  40  89 SE3       30.30F
NORTH PLATTE   PTCLDY    33  32  96 CALM      30.30F FOG
MCCOOK         FOG       37  36  96 CALM      30.30F VSB 1/2

...EASTERN NEBRASKA...

CITY           SKY/WX    TMP DP  RH WIND       PRES   REMARKS
NORFOLK        CLEAR     39  36  89 W8        30.25R WCI  33
SO SIOUX CITY  CLEAR     40  35  83 W6        30.22S
TEKAMAH        CLEAR     41  37  86 CALM      30.23R
COLUMBUS       CLEAR     37  30  75 W7        30.29S WCI  32
ALBION         CLEAR     35  32  89 NW3       30.27S
OMAHA EPPLEY   CLEAR     41  39  93 S3        30.25S
MILLARD          N/A     37  36  97 CALM      30.25S FOG
LINCOLN        CLEAR     40  38  93 SW5       30.29S
NEBRASKA CITY  CLEAR     39  38  97 W7        30.27S WCI  34
BEATRICE       CLEAR     36  36 100 CALM      30.29R FOG
FALLS CITY     CLEAR     40  39  97 NW5       30.27S

...NORTHERN KANSAS...

CITY           SKY/WX    TMP DP  RH WIND       PRES   REMARKS
GOODLAND       CLOUDY    43  39  86 S3        30.30F
HILL CITY      CLEAR     37  35  92 N5        30.32S WCI  33
NORTON         SUNNY     36  32  87 W5        30.30S WCI  32
PHILLIPSBURG   CLEAR     37  37 100 NW6       30.31F WCI  33
SMITH CENTER   CLEAR     36  34  93 NW5       30.31F FOG     WCI  32
HAYS           CLEAR     37  30  75 NW3       30.31S
RUSSELL        CLEAR     37  36  96 NW6       30.30S WCI  32
CONCORDIA      CLEAR     40  38  93 W6        30.30S
SALINA         CLEAR     42  39  89 NW5       30.31R
TOPEKA         CLEAR     43  42  97 W5        30.29R



USA.gov is the U.S. government's official web portal to all federal, state and local government web resources and services.